When you browse on this site, cookies collect data to enhance your experience and personalize the content and advertising you see.
Visit our Privacy Policy to learn more. By continuing to use the site, you agree to this use of cookies and data.
  • In Portugal
  • List of Countries
  • For 7 days
  • Water Temperature
  • Satellite Maps
  • Weather Map
  • Weather Widgets
  • user-avatar
    Login

    Hourly Weather Syrkowice

    Today, 16 January, Wednesday

    Time Temperature Precipitation Wind Pressure Humidity
    00:00 +2°C° 0 mm 9 mps 747 mmHg 86%
    01:00 +3°C° 0 mm 7 mps 748 mmHg 86%
    02:00 +3°C° 0.3 mm 7 mps 748 mmHg 88%
    03:00 +3°C° 0.3 mm 7 mps 748 mmHg 90%
    04:00 +3°C° 0.3 mm 6 mps 748 mmHg 91%
    05:00 +3°C° 0.4 mm 6 mps 749 mmHg 93%
    06:00 +3°C° 0.4 mm 5 mps 749 mmHg 94%
    07:00 +3°C° 0 mm 3 mps 749 mmHg 95%
    08:00 +4°C° 0.3 mm 4 mps 749 mmHg 93%
    09:00 +3°C° 0.3 mm 6 mps 749 mmHg 91%
    10:00 +4°C° 0.3 mm 7 mps 749 mmHg 88%
    11:00 +4°C° 0 mm 7 mps 749 mmHg 86%
    12:00 +4°C° 0 mm 8 mps 749 mmHg 84%
    13:00 +4°C° 0 mm 8 mps 749 mmHg 82%
    14:00 +4°C° 0.1 mm 8 mps 748 mmHg 83%
    15:00 +4°C° 0.1 mm 8 mps 748 mmHg 84%
    16:00 +4°C° 0.1 mm 8 mps 748 mmHg 85%
    17:00 +4°C° 0 mm 8 mps 748 mmHg 85%
    18:00 +4°C° 0 mm 8 mps 747 mmHg 85%
    19:00 +4°C° 0 mm 8 mps 747 mmHg 85%
    20:00 +4°C° 0.1 mm 8 mps 747 mmHg 84%
    21:00 +4°C° 0.1 mm 8 mps 746 mmHg 83%
    22:00 +4°C° 0.1 mm 8 mps 746 mmHg 82%
    23:00 +2°C° 0.2 mm 8 mps 745 mmHg 82%

    Tomorrow, 17 January, Thursday

    Time Temperature Precipitation Wind Pressure Humidity
    00:00 +2°C° 0.2 mm 8 mps 744 mmHg 82%
    01:00 +1°C° 0.2 mm 8 mps 744 mmHg 82%
    02:00 +1°C° 0.6 mm 8 mps 743 mmHg 81%
    03:00 +1°C° 0.6 mm 8 mps 743 mmHg 81%
    04:00 +1°C° 0.6 mm 9 mps 742 mmHg 81%
    05:00 +1°C° 0.8 mm 9 mps 742 mmHg 81%
    06:00 +1°C° 0.8 mm 9 mps 742 mmHg 81%
    07:00 +1°C° 0.8 mm 9 mps 742 mmHg 82%
    08:00 +1°C° 0.4 mm 8 mps 742 mmHg 82%
    09:00 +2°C° 0.4 mm 8 mps 742 mmHg 82%
    10:00 +2°C° 0.4 mm 8 mps 742 mmHg 82%
    11:00 +2°C° 0 mm 8 mps 742 mmHg 77%
    12:00 +2°C° 0 mm 8 mps 742 mmHg 73%
    13:00 +3°C° 0 mm 9 mps 742 mmHg 69%
    14:00 +2°C° 0.1 mm 9 mps 743 mmHg 70%
    15:00 +2°C° 0.1 mm 8 mps 743 mmHg 71%
    16:00 +2°C° 0.1 mm 8 mps 743 mmHg 72%
    17:00 +1°C° 0 mm 8 mps 743 mmHg 72%
    18:00 +1°C° 0 mm 8 mps 743 mmHg 72%
    19:00 +2°C° 0 mm 7 mps 743 mmHg 72%
    20:00 0°C° 0 mm 7 mps 744 mmHg 74%
    21:00 0°C° 0 mm 7 mps 744 mmHg 75%
    22:00 +1°C° 0 mm 6 mps 744 mmHg 76%
    23:00 -1°C° 0.2 mm 7 mps 745 mmHg 77%

    Day after tomorrow, 18 January, Friday

    Time Temperature Precipitation Wind Pressure Humidity
    00:00 -1°C° 0.2 mm 7 mps 745 mmHg 78%
    01:00 -1°C° 0.2 mm 7 mps 746 mmHg 79%
    02:00 -1°C° 0.4 mm 8 mps 747 mmHg 80%
    03:00 -2°C° 0.4 mm 10 mps 747 mmHg 82%
    04:00 -3°C° 0.4 mm 11 mps 748 mmHg 84%
    05:00 -3°C° 0.3 mm 9 mps 749 mmHg 81%
    06:00 -2°C° 0.3 mm 8 mps 751 mmHg 78%
    07:00 -2°C° 0.3 mm 7 mps 752 mmHg 75%
    08:00 -3°C° 0 mm 6 mps 753 mmHg 75%
    09:00 -3°C° 0 mm 6 mps 754 mmHg 74%
    10:00 -2°C° 0 mm 5 mps 755 mmHg 73%
    11:00 -1°C° 0 mm 5 mps 756 mmHg 70%
    12:00 -1°C° 0 mm 5 mps 756 mmHg 67%
    13:00 0°C° 0 mm 5 mps 757 mmHg 65%
    14:00 -1°C° 0.1 mm 5 mps 757 mmHg 69%
    15:00 -1°C° 0.1 mm 5 mps 758 mmHg 72%
    16:00 -1°C° 0.1 mm 5 mps 758 mmHg 76%
    17:00 -2°C° 0.1 mm 5 mps 758 mmHg 77%
    18:00 -2°C° 0.1 mm 5 mps 758 mmHg 78%
    19:00 -2°C° 0.1 mm 5 mps 759 mmHg 79%
    20:00 -2°C° 0 mm 5 mps 759 mmHg 81%
    21:00 -2°C° 0 mm 5 mps 759 mmHg 82%
    22:00 -2°C° 0 mm 5 mps 760 mmHg 84%
    23:00 -2°C° 0 mm 5 mps 760 mmHg 86%

    19 January, Saturday

    Time Temperature Precipitation Wind Pressure Humidity
    00:00 -3°C° 0 mm 4 mps 760 mmHg 88%
    01:00 -3°C° 0 mm 4 mps 760 mmHg 89%
    02:00 -3°C° 0 mm 4 mps 760 mmHg 90%
    03:00 -3°C° 0 mm 4 mps 760 mmHg 91%
    04:00 -3°C° 0 mm 4 mps 760 mmHg 93%
    05:00 -3°C° 0 mm 4 mps 760 mmHg 93%
    06:00 -3°C° 0 mm 4 mps 760 mmHg 94%
    07:00 -3°C° 0 mm 4 mps 760 mmHg 94%
    08:00 -3°C° 0 mm 4 mps 760 mmHg 93%
    09:00 -3°C° 0 mm 4 mps 761 mmHg 92%
    10:00 -2°C° 0 mm 4 mps 761 mmHg 91%
    11:00 -2°C° 0 mm 4 mps 761 mmHg 89%
    12:00 0°C° 0 mm 3 mps 761 mmHg 88%
    13:00 0°C° 0 mm 3 mps 761 mmHg 86%
    14:00 0°C° 0 mm 3 mps 761 mmHg 88%
    15:00 -1°C° 0 mm 3 mps 761 mmHg 90%
    16:00 -1°C° 0 mm 2 mps 760 mmHg 93%
    17:00 -2°C° 0 mm 2 mps 761 mmHg 93%
    18:00 -2°C° 0 mm 2 mps 761 mmHg 93%
    19:00 -2°C° 0 mm 2 mps 761 mmHg 93%
    20:00 -2°C° 0 mm 2 mps 761 mmHg 93%
    21:00 -2°C° 0 mm 2 mps 761 mmHg 92%
    22:00 -2°C° 0 mm 2 mps 761 mmHg 92%
    23:00 -2°C° 0 mm 2 mps 761 mmHg 91%

    20 January, Sunday

    Time Temperature Precipitation Wind Pressure Humidity
    00:00 -2°C° 0 mm 2 mps 761 mmHg 90%
    01:00 -3°C° 0 mm 2 mps 761 mmHg 90%
    02:00 -3°C° 0 mm 2 mps 761 mmHg 90%
    03:00 -3°C° 0 mm 2 mps 760 mmHg 90%
    04:00 -3°C° 0 mm 2 mps 760 mmHg 89%
    05:00 -1°C° 0 mm 1 mps 760 mmHg 89%
    06:00 -1°C° 0 mm 1 mps 760 mmHg 89%
    07:00 -1°C° 0 mm 1 mps 760 mmHg 89%
    08:00 -3°C° 0 mm 2 mps 760 mmHg 88%
    09:00 -2°C° 0 mm 2 mps 761 mmHg 86%
    10:00 -2°C° 0 mm 2 mps 761 mmHg 84%
    11:00 -1°C° 0 mm 2 mps 761 mmHg 82%
    12:00 -1°C° 0 mm 2 mps 761 mmHg 80%
    13:00 0°C° 0 mm 3 mps 761 mmHg 78%
    14:00 -1°C° 0 mm 3 mps 761 mmHg 82%
    15:00 -1°C° 0 mm 3 mps 760 mmHg 85%
    16:00 -2°C° 0 mm 3 mps 760 mmHg 89%
    17:00 -2°C° 0 mm 3 mps 761 mmHg 89%
    18:00 -2°C° 0 mm 4 mps 761 mmHg 90%
    19:00 -2°C° 0 mm 4 mps 761 mmHg 90%
    20:00 -2°C° 0.1 mm 4 mps 761 mmHg 86%
    21:00 -2°C° 0.1 mm 5 mps 762 mmHg 81%
    22:00 -1°C° 0.1 mm 5 mps 762 mmHg 77%
    23:00 -2°C° 0 mm 5 mps 763 mmHg 76%

    21 January, Monday

    Time Temperature Precipitation Wind Pressure Humidity
    00:00 -3°C° 0 mm 4 mps 763 mmHg 76%
    01:00 -4°C° 0 mm 4 mps 763 mmHg 76%
    02:00 -4°C° 0 mm 4 mps 764 mmHg 75%
    03:00 -3°C° 0 mm 4 mps 764 mmHg 74%
    04:00 -2°C° 0 mm 3 mps 764 mmHg 73%
    05:00 -2°C° 0 mm 3 mps 765 mmHg 71%
    06:00 -2°C° 0 mm 3 mps 765 mmHg 70%
    07:00 -2°C° 0 mm 2 mps 765 mmHg 68%
    08:00 -2°C° 0 mm 2 mps 766 mmHg 67%
    09:00 0°C° 0 mm 1 mps 766 mmHg 66%
    10:00 0°C° 0 mm 1 mps 767 mmHg 65%
    11:00 +1°C° 0 mm 1 mps 767 mmHg 62%
    12:00 +1°C° 0 mm 1 mps 767 mmHg 59%
    13:00 -1°C° 0 mm 2 mps 767 mmHg 57%
    14:00 -1°C° 0 mm 2 mps 767 mmHg 60%
    15:00 -2°C° 0 mm 2 mps 767 mmHg 64%
    16:00 -2°C° 0 mm 2 mps 767 mmHg 68%
    17:00 -1°C° 0 mm 1 mps 767 mmHg 69%
    18:00 -1°C° 0 mm 1 mps 767 mmHg 71%
    19:00 -1°C° 0 mm 1 mps 767 mmHg 73%
    20:00 -3°C° 0 mm 2 mps 767 mmHg 74%
    21:00 -4°C° 0 mm 2 mps 767 mmHg 75%
    22:00 -4°C° 0 mm 2 mps 767 mmHg 76%
    23:00 -4°C° 0 mm 2 mps 766 mmHg 76%
    Show more